Location: Kergrach
(48.3833°N, 4.5167°W)
Time: 02:26:41
(UTC+00:00)

ATLAS CENTAUR R/B - Pass Details

Date: 18 February 2020
Orbit: 466 x 681 km, 64.7° (Epoch: 03 April)

Event Time Altitude Azimuth Distance (km) Brightness Sun altitude
Exits shadow 05:22:28 42° 307° (NW) 896 2.0 -20.3°
Maximum altitude 05:22:43 43° 316° (NW) 888 2.0 -20.3°
Drops below altitude 10° 05:26:57 10° 29° (NNE) 1,951 4.5 -19.6°
Sets 05:29:14 0° 36° (NE) 2,818 5.5 -19.2°
